This demonstration page uses our WeatherBlox Daily Observations layout. Learn more.

Left ArrowRight Arrow

Hourly Observations for December 13, 2015

Temp ( °F °C ) Dew Point ( °F °C ) Humidity (%) Winds ( mph kmh ) Pressure ( in mb ) Visibility ( mi km ) Precip ( " mm )
12:53 am 00:53 Clear 53 11.7 51 10.6 93 93 Calm 30.19 1022 9 14 0.00 0.00
1:53 am 01:53 Clear 51 10.6 49 9.4 92 92 Calm 30.18 1022 8 13 0.00 0.00
2:53 am 02:53 Clear 51 10.6 48 8.9 89 89 Calm 30.17 1022 7 11 0.00 0.00
3:53 am 03:53 Clear 51 10.6 48 8.9 89 89 Calm 30.16 1021 9 14 0.00 0.00
4:53 am 04:53 Clear 50 10 47 8.3 89 89 Calm 30.17 1022 8 13 0.00 0.00
5:53 am 05:53 Clear 50 10 47 8.3 89 89 Calm 30.17 1022 8 13 0.00 0.00
6:53 am 06:53 Clear with Mist and Fog 49 9.4 46 7.8 90 90 Calm 30.18 1022 6 10 0.00 0.00
7:53 am 07:53 Sunny 49 9.4 47 8.3 93 93 Calm 30.18 1022 8 13 0.00 0.00
8:53 am 08:53 Sunny with Mist and Fog 53 11.7 51 10.6 93 93 NE 3 6 30.18 1022 6 10 0.00 0.00
9:53 am 09:53 Sunny 61 16.1 55 12.8 81 81 NNE 3 6 30.17 1022 10 16 0.00 0.00
10:53 am 10:53 Mostly Sunny 67 19.4 55 12.8 66 66 SE 10 17 30.16 1021 10 16 0.00 0.00
11:53 am 11:53 Sunny 69 20.6 56 13.3 63 63 SE 15 24 30.13 1020 10 16 0.00 0.00
12:53 pm 12:53 Sunny with Light Rain 71 21.7 58 14.4 63 63 SSE 10 17 30.09 1019 10 16 0.00 0.03
1:53 pm 13:53 Mostly Cloudy with Light Rain 71 21.7 59 15 66 66 SE 12 19 30.06 1018 10 16 0.00 0.03
2:53 pm 14:53 Partly Cloudy with Light Rain 72 22.2 58 14.4 61 61 S 12 19 30.04 1017 10 16 0.00 0.03
3:53 pm 15:53 Mostly Cloudy with Light Rain 72 22.2 58 14.4 61 61 ESE 6 9 30.02 1017 10 16 0.00 0.03
4:53 pm 16:53 Mostly Sunny 71 21.7 59 15 66 66 ESE 7 11 30.00 1016 10 16 0.00 0.03
5:53 pm 17:53 Clear 69 20.6 59 15 70 70 ESE 8 13 30.00 1016 10 16 0.00 0.00
6:53 pm 18:53 Clear 68 20 60 15.6 76 76 VRB 7 11 29.99 1016 10 16 0.00 0.00
7:53 pm 19:53 Mostly Clear 67 19.4 60 15.6 79 79 VRB 7 11 29.99 1016 10 16 0.00 0.00
8:53 pm 20:53 Clear 66 18.9 60 15.6 81 81 ESE 6 9 29.99 1016 10 16 0.00 0.00
9:53 pm 21:53 Clear 66 18.9 59 15 78 78 VRB 6 9 29.96 1015 10 16 0.00 0.00
10:53 pm 22:53 Partly Cloudy 66 18.9 58 14.4 75 75 SE 7 11 29.95 1014 10 16 0.00 0.00
11:53 pm 23:53 Clear 65 18.3 59 15 81 81 SE 7 11 29.92 1013 10 16 0.00 0.00

Powered by AerisWeather